Location: Ferques
(50.8300°N, 1.7599°E)
Time: 15:56:53
(UTC+00:00)

Geosat - Pass Details

Date: 19 May 2025
Orbit: 758 x 761 km, 108.1° (Epoch: 12 June)

Event Time Altitude Azimuth Distance (km) Brightness Sun altitude
Rises 20:39:25 0° 28° (NNE) 3,234 7.5 -7.8°
Reaches altitude 10° 20:41:42 10° 26° (NNE) 2,304 6.8 -8.1°
Maximum altitude 20:46:41 67° 305° (NW) 829 4.5 -8.6°
Drops below altitude 10° 20:51:38 10° 224° (SW) 2,291 6.4 -9.1°
Sets 20:53:54 0° 222° (SW) 3,213 7.2 -9.4°
